Miscellaneous Local Product
Issued by NWS North Platte, NE

Home | Current Version | Previous Version | Text Only | Print | Product List | Glossary On
Versions: 1 2 3 4 5 6 7 8 9 10 11 12 13 14 15 16 17 18 19 20 21 22 23 24 25 26 27 28 29 30 31 32 33 34 35 36 37 38 39 40 41 42 43 44 45 46 47 48 49 50
000
AXUS43 KLBF 211510
MISLBF


WESTERN AND NORTH CENTRAL NEBRASKA HOURLY WEATHER ROUNDUP
NATIONAL WEATHER SERVICE NORTH PLATTE NE
1000 AM CDT SUN SEP 21 2014

***STATIONS NOT REPORTING VARIABLES SUCH AS SKY/WEATHER OR
PRESSURE ARE PROVIDED BY THE NEBRASKA DEPARTMENT OF
ROADS...RAWS...AND APRS NETWORKS...AND ARE NOT UNDER
NATIONAL WEATHER SERVICE QUALITY CONTROL***

...OBSERVATIONS IN AND NEAR THE EASTERN PANHANDLE OF NEBRASKA...

CITY           SKY/WX    TMP DP  RH WIND       PRES   REMARKS
PINE RIDGE     SUNNY     52  43  71 CALM      30.37R
CHADRON        SUNNY     53  43  68 CALM      30.37S
ALLIANCE       MOSUNNY   57  41  55 CALM      30.38R
SIDNEY         CLOUDY    60  39  45 E6        30.42R
WHITECLAY        N/A     56  40  55 CALM        N/A
RUSHVILLE        N/A     60  35  39 E5          N/A
CRESCENT LAKE    N/A     57  44  62 CALM        N/A
LISCO            N/A     59  47  62 CALM        N/A
BIG SPRINGS      N/A     54  49  83 CALM        N/A
$$

...OBSERVATIONS IN NORTH CENTRAL NEBRASKA...

CITY           SKY/WX    TMP DP  RH WIND       PRES   REMARKS
VALENTINE      SUNNY     62  42  47 VRB3      30.34R
THEDFORD       SUNNY     62  42  47 N6        30.35R
AINSWORTH      SUNNY     58  43  56 NW7       30.33R
O`NEILL        SUNNY     59  46  61 NW12      30.30R
ORD            SUNNY     58  45  62 N7        30.30R
BROKEN BOW     SUNNY     65  41  41 N8        30.32R
SPRINGVIEW       N/A     56  46  68 W3          N/A
ROSE             N/A     65  46  48 SW5         N/A
NEWPORT          N/A     61  42  49 NW12        N/A
COMSTOCK         N/A     66  44  45 N6          N/A
$$

...OBSERVATIONS IN SOUTHWEST NEBRASKA AND FAR NORTHEAST COLORADO...

CITY           SKY/WX    TMP DP  RH WIND       PRES   REMARKS
WRAY           CLOUDY    60  43  52 CALM      30.39R
HOLYOKE        FAIR      61  45  55 CALM      30.39S
IMPERIAL       MOSUNNY   64  41  42 NE8       30.37R
OGALLALA       CLOUDY    59  49  69 CALM      30.38R
NORTH PLATTE   CLOUDY    56  45  66 SW3       30.35R
MCCOOK         PTSUNNY   65  43  44 NE9       30.34R
LEXINGTON      MOSUNNY   60  48  64 N3        30.34R
PAXTON           N/A     52  46  79 CALM        N/A
SUTHERLAND       N/A     62  43  49 CALM        N/A
BRADY            N/A     55  47  74 CALM        N/A
GOTHENBURG       N/A     53  41  63 NW3         N/A
CALLAWAY         N/A     54  45  71 CALM        N/A
$$

...SOME WEATHER OBSERVATIONS FROM AROUND THE REGION...

CITY           SKY/WX    TMP DP  RH WIND       PRES   REMARKS
DENVER         PTSUNNY   58  45  62 N6        30.40R
LARAMIE        SUNNY     53  38  56 S23       30.42S
CHEYENNE       CLOUDY    57  37  47 S9        30.42S
SCOTTSBLUFF    CLOUDY    59  43  55 E5        30.39R
RAPID CITY     SUNNY     60  39  45 CALM      30.36R
PIERRE         SUNNY     59  42  53 NW10      30.29R
WINNER         FAIR      59  41  51 NW9       30.32R
SIOUX FALLS    SUNNY     60  47  61 N12       30.22R
OMAHA          SUNNY     63  47  55 NW15      30.22R
GRAND ISLAND   SUNNY     65  44  46 N9        30.30R
KANSAS CITY    SUNNY     67  56  67 NW9       30.18R
WICHITA        MOSUNNY   73  49  42 NE13      30.21R
HAYS           SUNNY     66  46  48 N10       30.29R
LIBERAL        SUNNY     70  48  46 NE20      30.29R
GOODLAND       CLOUDY    60  46  59 NW5       30.38R
$$



USA.gov is the U.S. government's official web portal to all federal, state and local government web resources and services.